User: anonymous   Login
Location: Bangkok
(13.7500°N, 100.5170°E)
Time: 16:27:54
(UTC+07:00)
Language:

Cosmos 1802 Rocket - Orbit

View from above orbital plane
View from above orbital plane
View from above satellite
View from above satellite

Ground track
Ground track

The orbit data is extracted from the following two-line orbital elements,

1 17160U 86093B   18115.72179184  .00000012  00000-0 -31641-5 0  9990
2 17160  82.9303 192.4531 0038726   0.0346 174.7272 13.74611473575808
Epoch (UTC): 25 April 2018 17:19:22
Eccentricity: 0.0038726
inclination: 82.9303°
perigee height: 954 km
apogee height: 1011 km
right ascension of ascending node: 192.4531°
argument of perigee: 0.0346°
revolutions per day: 13.74611473
mean anomaly at epoch: 174.7272°
orbit number at epoch: 57580

The dashed part of the orbit path shows where the satellite is in the earth's shadow,  

DLR